Estació meteorològica de Bellmunt (Osona, Osona)

Consulta les dades en temps real de l'estació meteorològica de Bellmunt





Hora UTC 18:45
Temperatura 27.9 ºC
Humitat 43.0 %
Pressió 1016.1 hPa
Pluja 0.0 mm
Velocitat vent 0.0 km/h
Direcció vent SE

Dades diàries 2026-09-06



Hora UTC (hivern +1h; estiu +2h)
Temperatura (ºC) Humitat (%) Pressió (hPa) Velocitat vent (km/h) Precipitació (mm)
Hora UTC Aire Humitat Pressió Vel. Dir. Vel. Max Dir. Intent. màx 5 min.
00:05 21.0 56.0 1017.5 0.0 N 0.0 0.0
00:10 20.8 57.0 1017.4 0.0 N 0.0 0.0
00:15 20.6 57.0 1017.4 0.0 N 0.0 0.0
00:20 20.8 57.0 1017.3 0.0 N 0.0 0.0
00:25 20.9 56.0 1017.3 0.0 NNE 0.0 0.0
00:30 20.8 57.0 1017.3 0.0 NNE 0.0 0.0
00:35 20.8 56.0 1017.3 0.0 NNE 0.0 0.0
00:40 20.8 57.0 1017.3 0.0 N 0.0 0.0
00:45 20.6 57.0 1017.3 0.0 N 0.0 0.0
00:50 20.4 57.0 1017.3 0.0 NNE 0.0 0.0
00:55 20.4 58.0 1017.3 0.0 NNE 0.0 0.0
01:00 20.3 57.0 1017.2 0.0 NNE 0.0 0.0
01:05 20.3 57.0 1017.2 0.0 NNE 0.0 0.0
01:10 20.3 58.0 1017.2 0.0 NNE 0.0 0.0
01:15 20.2 58.0 1017.2 0.0 NNE 0.0 0.0
01:20 20.3 58.0 1017.1 0.0 NNE 0.0 0.0
01:25 20.2 58.0 1017.1 3.2 NNE 4.8 0.0
01:30 20.1 58.0 1017.1 0.0 NNE 4.8 0.0
01:35 20.2 58.0 1017.1 0.0 NNE 3.2 0.0
01:40 20.1 58.0 1017.1 0.0 NNE 0.0 0.0
01:45 20.0 58.0 1017.0 0.0 NNE 0.0 0.0
01:50 19.8 58.0 1017.0 0.0 NNE 0.0 0.0
01:55 19.6 59.0 1017.1 0.0 NNE 0.0 0.0
02:00 19.4 59.0 1017.0 0.0 NNE 0.0 0.0
02:05 19.6 59.0 1017.1 0.0 NNE 0.0 0.0
02:10 19.7 59.0 1017.0 0.0 NNE 0.0 0.0
02:15 19.7 58.0 1017.0 0.0 NNE 0.0 0.0
02:20 19.8 59.0 1017.0 0.0 NNE 0.0 0.0
02:25 19.9 58.0 1016.9 0.0 NNE 0.0 0.0
02:30 19.9 58.0 1016.9 3.2 NNE 3.2 0.0
02:35 19.9 58.0 1017.0 0.0 NNE 4.8 0.0
02:40 19.8 58.0 1016.9 0.0 NNE 3.2 0.0
02:45 19.7 58.0 1016.9 0.0 NE 0.0 0.0
02:50 19.7 59.0 1016.8 0.0 NNE 0.0 0.0
02:55 19.8 58.0 1016.8 0.0 NNE 0.0 0.0
03:00 19.8 58.0 1016.8 3.2 NNE 4.8 0.0
03:05 19.8 58.0 1016.8 3.2 NNE 4.8 0.0
03:10 19.8 59.0 1016.8 1.6 NNE 4.8 0.0
03:15 19.7 59.0 1016.8 0.0 NNE 4.8 0.0
03:20 19.6 59.0 1016.8 0.0 NNE 1.6 0.0
03:25 19.5 59.0 1016.8 0.0 NNE 0.0 0.0
03:30 19.5 59.0 1016.8 0.0 NNE 0.0 0.0
03:35 19.4 59.0 1016.8 0.0 NNE 0.0 0.0
03:40 19.3 60.0 1016.7 0.0 NE 0.0 0.0
03:45 19.2 59.0 1016.7 0.0 NE 0.0 0.0
03:50 18.9 60.0 1016.7 0.0 NE 0.0 0.0
03:55 18.7 61.0 1016.7 0.0 NE 0.0 0.0
04:00 18.7 61.0 1016.6 0.0 NE 0.0 0.0
04:05 18.6 61.0 1016.5 0.0 NE 0.0 0.0
04:10 18.5 61.0 1016.5 0.0 NE 0.0 0.0
04:15 18.6 61.0 1016.5 0.0 NE 0.0 0.0
04:20 18.8 61.0 1016.5 0.0 NE 0.0 0.0
04:25 18.8 60.0 1016.5 0.0 NE 0.0 0.0
04:30 18.8 60.0 1016.5 0.0 NE 0.0 0.0
04:35 18.7 60.0 1016.4 1.6 NNE 4.8 0.0
04:40 18.7 61.0 1016.3 1.6 N 4.8 0.0
04:45 18.8 60.0 1016.3 1.6 N 3.2 0.0
04:50 18.5 61.0 1016.3 0.0 N 3.2 0.0
04:55 18.3 61.0 1016.3 0.0 N 0.0 0.0
05:00 18.2 61.0 1016.3 0.0 N 3.2 0.0
05:05 18.0 62.0 1016.4 0.0 N 3.2 0.0
05:10 17.8 62.0 1016.3 0.0 N 1.6 0.0
05:15 17.6 62.0 1016.3 0.0 N 1.6 0.0
05:20 17.4 63.0 1016.4 0.0 N 1.6 0.0
05:25 17.7 63.0 1016.5 0.0 N 1.6 0.0
05:30 18.1 62.0 1016.4 1.6 NNE 3.2 0.0
05:35 18.4 62.0 1016.5 1.6 NE 6.4 0.0
05:40 18.4 61.0 1016.5 0.0 NE 6.4 0.0
05:45 18.4 61.0 1016.6 0.0 NE 0.0 0.0
05:50 18.3 62.0 1016.5 0.0 NE 0.0 0.0
05:55 18.2 62.0 1016.6 0.0 NE 0.0 0.0
06:00 18.3 62.0 1016.7 0.0 NW 0.0 0.0
06:05 18.3 62.0 1016.6 0.0 NW 0.0 0.0
06:10 18.5 62.0 1016.7 0.0 NW 0.0 0.0
06:15 18.8 61.0 1016.7 0.0 NW 0.0 0.0
06:20 19.3 61.0 1016.7 0.0 NNW 0.0 0.0
06:25 19.6 59.0 1016.8 0.0 NNW 0.0 0.0
06:30 19.9 59.0 1016.8 0.0 W 0.0 0.0
06:35 20.1 59.0 1016.7 0.0 W 0.0 0.0
06:40 20.3 58.0 1016.8 0.0 W 0.0 0.0
06:45 20.6 58.0 1016.8 0.0 W 0.0 0.0
06:50 20.8 57.0 1016.8 0.0 W 0.0 0.0
06:55 21.2 56.0 1016.8 0.0 W 0.0 0.0
07:00 21.6 55.0 1016.8 0.0 W 0.0 0.0
07:05 21.9 55.0 1016.9 0.0 W 0.0 0.0
07:10 22.4 53.0 1016.9 0.0 W 0.0 0.0
07:15 22.9 53.0 1016.9 0.0 W 0.0 0.0
07:20 23.2 52.0 1016.9 0.0 W 0.0 0.0
07:25 23.3 53.0 1016.9 0.0 W 0.0 0.0
07:30 23.4 53.0 1017.0 0.0 W 3.2 0.0
07:35 23.3 53.0 1017.0 0.0 W 3.2 0.0
07:40 23.3 53.0 1016.9 0.0 W 3.2 0.0
07:45 23.7 53.0 1016.9 0.0 W 3.2 0.0
07:50 23.9 53.0 1017.0 3.2 W 4.8 0.0
07:55 23.9 54.0 1016.9 1.6 W 6.4 0.0
08:00 24.0 54.0 1016.9 3.2 W 6.4 0.0
08:05 24.1 53.0 1016.9 3.2 W 4.8 0.0
08:10 24.2 53.0 1017.0 1.6 W 4.8 0.0
08:15 24.3 51.0 1017.0 0.0 W 4.8 0.0
08:20 24.8 51.0 1017.0 0.0 W 4.8 0.0
08:25 25.3 51.0 1017.0 0.0 W 0.0 0.0
08:30 25.6 49.0 1017.0 0.0 SSW 4.8 0.0
08:35 25.7 49.0 1017.1 0.0 S 4.8 0.0
08:40 26.3 49.0 1017.1 1.6 SW 3.2 0.0
08:45 26.8 48.0 1017.1 1.6 SSW 4.8 0.0
08:50 26.9 50.0 1017.2 0.0 SW 4.8 0.0
08:55 27.3 48.0 1017.2 0.0 SSW 1.6 0.0
09:00 27.8 49.0 1017.2 0.0 SW 0.0 0.0
09:05 28.3 47.0 1017.2 0.0 SSW 0.0 0.0
09:10 28.6 46.0 1017.2 1.6 WSW 4.8 0.0
09:15 28.9 45.0 1017.2 3.2 WSW 6.4 0.0
09:20 29.1 44.0 1017.2 1.6 WSW 6.4 0.0
09:25 29.2 47.0 1017.2 3.2 WSW 6.4 0.0
09:30 29.6 46.0 1017.2 0.0 WSW 6.4 0.0
09:35 29.6 46.0 1017.1 3.2 WSW 6.4 0.0
09:40 29.7 47.0 1017.2 1.6 WSW 6.4 0.0
09:45 30.1 43.0 1017.1 1.6 WSW 6.4 0.0
09:50 30.6 42.0 1017.0 1.6 WSW 4.8 0.0
09:55 31.1 42.0 1017.1 3.2 WSW 4.8 0.0
10:00 31.1 43.0 1017.0 3.2 WSW 4.8 0.0
10:05 31.2 42.0 1017.0 3.2 WSW 6.4 0.0
10:10 31.4 41.0 1017.0 0.0 WSW 6.4 0.0
10:15 31.9 42.0 1017.0 3.2 WSW 6.4 0.0
10:20 32.1 42.0 1017.0 3.2 WSW 4.8 0.0
10:25 32.3 37.0 1016.9 4.8 WSW 6.4 0.0
10:30 32.7 37.0 1016.9 1.6 WSW 6.4 0.0
10:35 33.3 38.0 1017.0 3.2 WSW 4.8 0.0
10:40 33.6 35.0 1016.9 1.6 WSW 6.4 0.0
10:45 33.9 33.0 1016.8 4.8 WSW 6.4 0.0
10:50 34.0 33.0 1016.8 3.2 WSW 6.4 0.0
10:55 34.3 34.0 1016.8 0.0 WSW 4.8 0.0
11:00 34.6 34.0 1016.7 1.6 WSW 4.8 0.0
11:05 34.9 34.0 1016.7 8.0 SSE 9.7 0.0
11:10 34.9 31.0 1016.7 6.4 SSE 8.0 0.0
11:15 34.9 31.0 1016.8 3.2 SSW 11.3 0.0
11:20 35.3 31.0 1016.7 1.6 WSW 9.7 0.0
11:25 35.7 27.0 1016.7 3.2 SW 8.0 0.0
11:30 35.9 27.0 1016.7 1.6 ESE 8.0 0.0
11:35 36.1 26.0 1016.6 1.6 SE 11.3 0.0
11:40 36.2 28.0 1016.7 6.4 SW 11.3 0.0
11:45 36.2 26.0 1016.7 4.8 E 11.3 0.0
11:50 36.2 24.0 1016.7 8.0 SSE 11.3 0.0
11:55 36.3 26.0 1016.6 1.6 WSW 11.3 0.0
12:00 36.6 23.0 1016.7 4.8 SSW 8.0 0.0
12:05 36.7 24.0 1016.6 8.0 SSE 8.0 0.0
12:10 37.1 23.0 1016.7 3.2 E 9.7 0.0
12:15 37.3 24.0 1016.6 11.3 W 11.3 0.0
12:20 37.1 23.0 1016.6 1.6 WSW 14.5 0.0
12:25 37.2 21.0 1016.5 6.4 W 14.5 0.0
12:30 37.5 19.0 1016.5 6.4 SSE 8.0 0.0
12:35 37.8 19.0 1016.4 17.7 WSW 24.1 0.0
12:40 37.8 20.0 1016.4 4.8 WSW 24.1 0.0
12:45 38.1 21.0 1016.5 6.4 W 16.1 0.0
12:50 38.2 20.0 1016.5 17.7 WSW 20.9 0.0
12:55 38.0 18.0 1016.4 9.7 SSW 20.9 0.0
13:00 38.2 19.0 1016.5 12.9 W 20.9 0.0
13:05 38.2 17.0 1016.3 11.3 SSW 20.9 0.0
13:10 38.2 21.0 1016.2 6.4 W 17.7 0.0
13:15 37.9 18.0 1016.4 9.7 NW 27.4 0.0
13:20 37.8 18.0 1016.4 9.7 NNW 27.4 0.0
13:25 37.6 18.0 1016.3 16.1 WNW 27.4 0.0
13:30 38.1 22.0 1016.3 11.3 W 27.4 0.0
13:35 38.4 19.0 1016.2 11.3 SSW 19.3 0.0
13:40 38.4 18.0 1016.3 6.4 W 19.3 0.0
13:45 38.3 19.0 1016.3 20.9 WSW 27.4 0.0
13:50 38.3 18.0 1016.2 17.7 W 27.4 0.0
13:55 37.8 18.0 1016.2 11.3 WSW 32.2 0.0
14:00 38.2 17.0 1016.2 12.9 WSW 30.6 0.0
14:05 38.2 18.0 1016.1 9.7 W 27.4 0.0
14:10 38.2 17.0 1016.2 17.7 NW 27.4 0.0
14:15 38.1 17.0 1016.0 29.0 W 32.2 0.0
14:20 38.1 16.0 1016.1 22.5 WNW 35.4 0.0
14:25 37.9 17.0 1016.1 17.7 W 35.4 0.0
14:30 38.0 16.0 1016.0 19.3 W 30.6 0.0
14:35 37.7 16.0 1016.1 25.7 WNW 29.0 0.0
14:40 37.7 15.0 1016.1 29.0 WSW 32.2 0.0
14:45 37.5 15.0 1016.2 22.5 WSW 32.2 0.0
14:50 37.6 16.0 1016.1 12.9 WNW 32.2 0.0
14:55 37.7 16.0 1016.1 16.1 W 32.2 0.0
15:00 37.5 15.0 1016.1 20.9 WSW 33.8 0.0
15:05 37.5 16.0 1016.1 19.3 W 33.8 0.0
15:10 37.5 16.0 1015.9 14.5 WSW 29.0 0.0
15:15 37.4 15.0 1016.0 17.7 W 32.2 0.0
15:20 37.6 16.0 1015.9 14.5 W 32.2 0.0
15:25 37.5 16.0 1015.9 6.4 WSW 24.1 0.0
15:30 37.5 15.0 1015.8 19.3 W 29.0 0.0
15:35 37.3 15.0 1015.9 27.4 SW 29.0 0.0
15:40 37.3 15.0 1015.9 9.7 SSW 33.8 0.0
15:45 37.3 15.0 1015.9 20.9 SW 24.1 0.0
15:50 37.3 14.0 1015.9 12.9 SSW 22.5 0.0
15:55 37.2 15.0 1015.9 17.7 WSW 19.3 0.0
16:00 37.2 15.0 1016.0 12.9 WNW 20.9 0.0
16:05 37.1 15.0 1016.0 11.3 WNW 17.7 0.0
16:10 36.8 15.0 1016.0 14.5 W 22.5 0.0
16:15 36.3 14.0 1015.9 17.7 WSW 27.4 0.0
16:20 36.1 15.0 1016.0 17.7 W 27.4 0.0
16:25 35.7 15.0 1016.1 11.3 WSW 22.5 0.0
16:30 35.5 16.0 1016.1 9.7 SW 25.7 0.0
16:35 35.3 16.0 1016.2 3.2 W 25.7 0.0
16:40 34.9 16.0 1016.2 3.2 W 16.1 0.0
16:45 34.6 17.0 1016.2 1.6 SE 8.0 0.0
16:50 34.3 27.0 1016.1 16.1 S 16.1 0.0
16:55 33.9 31.0 1016.2 4.8 SSE 14.5 0.0
17:00 33.7 32.0 1016.2 12.9 S 24.1 0.0
17:05 33.3 33.0 1016.1 16.1 SSE 24.1 0.0
17:10 33.2 34.0 1016.0 14.5 SSE 24.1 0.0
17:15 32.8 35.0 1016.0 8.0 S 20.9 0.0
17:20 32.6 35.0 1016.1 9.7 E 16.1 0.0
17:25 32.4 34.0 1015.9 9.7 E 16.1 0.0
17:30 32.3 34.0 1016.0 11.3 ESE 14.5 0.0
17:35 32.1 34.0 1015.8 4.8 ESE 14.5 0.0
17:40 31.8 35.0 1015.8 6.4 ESE 9.7 0.0
17:45 31.7 35.0 1015.8 4.8 E 9.7 0.0
17:50 31.4 36.0 1015.8 1.6 ESE 11.3 0.0
17:55 31.2 36.0 1015.9 0.0 ESE 9.7 0.0
18:00 30.8 37.0 1015.7 0.0 ESE 3.2 0.0
18:05 30.3 38.0 1015.8 3.2 NE 6.4 0.0
18:10 30.1 38.0 1015.9 1.6 E 6.4 0.0
18:15 29.8 39.0 1015.8 0.0 E 6.4 0.0
18:20 29.7 39.0 1015.9 1.6 SSE 4.8 0.0
18:25 29.6 39.0 1015.9 0.0 SE 4.8 0.0
18:30 29.2 40.0 1016.0 1.6 SE 4.8 0.0
18:35 28.8 41.0 1016.0 0.0 WSW 3.2 0.0
18:40 28.3 42.0 1016.0 0.0 WSW 3.2 0.0
18:45 27.9 43.0 1016.1 0.0 SE 4.8 0.0
Màxima 38.4 63.0 1017.5 29.0 WSW 35.4 0.0
Mínima 17.4 14.0 1015.7
Total 0.0